QPF
0.01 0.01 0.04 0.04 0.02 0.02 0.01 0.00 0.00 0.00 0.00 0.00 0.00 0.00 0.00 0.00 0.00 0.01 0.01 0.00 0.00 0.01 0.01 0.00 0.00 0.00 0.00 0.00 0.00 0.01 0.01 0.01 0.01 0.00 0.00 0.01 0.02 0.03 0.03 0.05 0.03 0.03 0.05
0.00 0.00 0.02 0.03 0.02 0.01 0.01 0.01 0.01 0.01 0.01 0.01 0.00 0.00 0.00 0.00 0.00 0.00 0.00 0.00 0.00 0.00 0.00 0.00 0.00 0.00 0.01 0.01 0.00 0.00 0.00 0.00 0.00 0.00 0.00 0.00 0.01 0.03 0.02 0.04 0.04 0.05 0.06
0.00 0.00 0.01 0.02 0.02 0.01 0.01 0.01 0.01 0.01 0.01 0.01 0.01 0.00 0.00 0.00 0.00 0.00 0.00 0.00 0.00 0.00 0.00 0.00 0.00 0.00 0.01 0.01 0.00 0.00 0.00 0.00 0.00 0.01 0.01 0.00 0.01 0.02 0.02 0.03 0.03 0.04 0.07
0.01 0.01 0.01 0.01 0.02 0.02 0.01 0.01 0.01 0.01 0.01 0.00 0.00 0.00 0.00 0.00 0.00 0.00 0.00 0.00 0.00 0.00 0.00 0.00 0.00 0.01 0.00 0.01 0.00 0.00 0.00 0.01 0.01 0.02 0.01 0.00 0.00 0.02 0.03 0.04 0.05 0.06 0.06
0.02 0.01 0.02 0.04 0.04 0.03 0.03 0.02 0.02 0.01 0.01 0.00 0.00 0.00 0.00 0.00 0.00 0.00 0.00 0.00 0.00 0.00 0.00 0.00 0.01 0.01 0.00 0.00 0.00 0.00 0.00 0.00 0.02 0.01 0.00 0.00 0.00 0.01 0.03 0.05 0.05 0.06 0.05
0.05 0.04 0.05 0.07 0.06 0.06 0.05 0.04 0.04 0.03 0.02 0.02 0.01 0.01 0.01 0.01 0.00 0.00 0.00 0.00 0.00 0.00 0.00 0.00 0.01 0.01 0.01 0.00 0.00 0.00 0.00 0.01 0.00 0.00 0.00 0.00 0.01 0.02 0.02 0.04 0.04 0.03 0.03
0.13 0.09 0.09 0.10 0.08 0.07 0.07 0.07 0.06 0.04 0.04 0.03 0.02 0.02 0.02 0.01 0.01 0.00 0.00 0.00 0.00 0.00 0.00 0.00 0.01 0.01 0.01 0.00 0.00 0.00 0.01 0.01 0.00 0.00 0.00 0.00 0.01 0.02 0.03 0.03 0.05 0.04 0.05
0.24 0.21 0.16 0.14 0.12 0.10 0.08 0.08 0.07 0.06 0.05 0.04 0.02 0.03 0.03 0.02 0.01 0.01 0.00 0.00 0.00 0.00 0.00 0.00 0.01 0.01 0.01 0.00 0.00 0.00 0.01 0.01 0.00 0.00 0.00 0.00 0.02 0.02 0.02 0.03 0.04 0.04 0.05
0.28 0.28 0.24 0.19 0.18 0.16 0.14 0.13 0.11 0.09 0.08 0.07 0.05 0.05 0.05 0.04 0.03 0.02 0.02 0.01 0.00 0.00 0.00 0.00 0.00 0.01 0.01 0.00 0.00 0.01 0.01 0.01 0.01 0.01 0.00 0.00 0.02 0.02 0.02 0.03 0.04 0.04 0.04
0.27 0.28 0.25 0.22 0.23 0.20 0.17 0.20 0.20 0.16 0.14 0.11 0.10 0.09 0.08 0.06 0.04 0.03 0.03 0.02 0.01 0.01 0.00 0.00 0.00 0.00 0.00 0.01 0.01 0.01 0.01 0.00 0.01 0.01 0.00 0.01 0.04 0.03 0.02 0.03 0.03 0.03 0.03
0.25 0.25 0.24 0.22 0.23 0.23 0.19 0.21 0.27 0.24 0.21 0.16 0.14 0.14 0.14 0.08 0.05 0.03 0.03 0.04 0.03 0.02 0.02 0.02 0.01 0.01 0.01 0.01 0.01 0.02 0.01 0.00 0.01 0.01 0.01 0.01 0.04 0.05 0.04 0.03 0.03 0.03 0.03
0.19 0.21 0.22 0.21 0.23 0.23 0.21 0.21 0.23 0.21 0.21 0.21 0.19 0.16 0.14 0.09 0.05 0.03 0.02 0.05 0.06 0.05 0.05 0.03 0.02 0.02 0.01 0.00 0.00 0.01 0.00 0.00 0.01 0.02 0.01 0.02 0.05 0.05 0.04 0.03 0.03 0.03 0.03
0.10 0.12 0.14 0.14 0.14 0.16 0.17 0.20 0.19 0.19 0.20 0.20 0.20 0.19 0.18 0.13 0.06 0.04 0.02 0.03 0.05 0.06 0.04 0.02 0.02 0.01 0.00 0.00 0.00 0.00 0.00 0.00 0.01 0.02 0.02 0.03 0.05 0.05 0.04 0.03 0.03 0.04 0.04
0.03 0.04 0.05 0.05 0.06 0.08 0.11 0.13 0.15 0.16 0.16 0.18 0.19 0.19 0.18 0.13 0.10 0.06 0.05 0.04 0.04 0.05 0.04 0.02 0.01 0.01 0.01 0.00 0.00 0.00 0.00 0.00 0.01 0.02 0.03 0.03 0.05 0.05 0.04 0.03 0.04 0.05 0.04
0.01 0.01 0.01 0.02 0.02 0.02 0.04 0.06 0.09 0.11 0.12 0.14 0.17 0.18 0.18 0.15 0.15 0.15 0.10 0.08 0.07 0.09 0.07 0.05 0.03 0.02 0.02 0.02 0.01 0.00 0.00 0.00 0.00 0.01 0.01 0.02 0.04 0.06 0.05 0.04 0.03 0.04 0.04
0.00 0.00 0.00 0.00 0.01 0.01 0.01 0.02 0.03 0.04 0.06 0.09 0.11 0.14 0.15 0.12 0.15 0.18 0.15 0.14 0.13 0.13 0.10 0.07 0.05 0.05 0.04 0.02 0.01 0.01 0.01 0.00 0.00 0.01 0.01 0.01 0.03 0.04 0.04 0.04 0.04 0.03 0.04
0.00 0.00 0.00 0.00 0.00 0.01 0.00 0.00 0.00 0.01 0.01 0.02 0.04 0.06 0.08 0.10 0.12 0.16 0.18 0.18 0.15 0.17 0.16 0.13 0.09 0.07 0.06 0.03 0.02 0.01 0.01 0.01 0.01 0.01 0.01 0.01 0.01 0.02 0.02 0.03 0.04 0.04 0.03
0.00 0.00 0.00 0.00 0.00 0.00 0.00 0.00 0.00 0.00 0.00 0.00 0.01 0.02 0.04 0.06 0.07 0.11 0.14 0.15 0.15 0.15 0.16 0.17 0.16 0.12 0.09 0.06 0.04 0.03 0.03 0.02 0.01 0.01 0.01 0.01 0.01 0.01 0.01 0.03 0.04 0.04 0.04
0.00 0.00 0.00 0.00 0.00 0.00 0.00 0.00 0.00 0.00 0.00 0.00 0.00 0.00 0.02 0.03 0.04 0.07 0.10 0.11 0.15 0.16 0.16 0.16 0.17 0.16 0.14 0.10 0.08 0.05 0.03 0.02 0.02 0.01 0.01 0.02 0.03 0.02 0.01 0.02 0.03 0.03 0.04
0.00 0.00 0.00 0.00 0.00 0.00 0.00 0.00 0.00 0.00 0.00 0.00 0.00 0.00 0.01 0.01 0.03 0.04 0.07 0.10 0.13 0.13 0.15 0.16 0.17 0.19 0.16 0.14 0.12 0.08 0.06 0.05 0.04 0.03 0.03 0.03 0.03 0.02 0.02 0.02 0.02 0.02 0.03
0.00 0.00 0.00 0.00 0.00 0.00 0.00 0.00 0.00 0.00 0.00 0.00 0.00 0.00 0.00 0.01 0.01 0.03 0.05 0.08 0.10 0.11 0.13 0.18 0.18 0.19 0.17 0.16 0.13 0.10 0.07 0.06 0.05 0.04 0.04 0.04 0.03 0.02 0.02 0.02 0.02 0.01 0.01
0.00 0.00 0.00 0.01 0.00 0.00 0.00 0.00 0.00 0.00 0.00 0.00 0.00 0.00 0.00 0.00 0.01 0.02 0.02 0.04 0.07 0.09 0.12 0.14 0.16 0.15 0.17 0.17 0.14 0.13 0.10 0.07 0.04 0.04 0.04 0.04 0.04 0.03 0.03 0.02 0.02 0.01 0.01
0.00 0.00 0.00 0.00 0.00 0.00 0.00 0.00 0.01 0.01 0.00 0.00 0.00 0.00 0.01 0.01 0.00 0.01 0.01 0.02 0.04 0.07 0.10 0.14 0.15 0.16 0.16 0.18 0.16 0.13 0.09 0.06 0.05 0.04 0.04 0.04 0.04 0.04 0.04 0.04 0.03 0.03 0.03
0.00 0.00 0.00 0.00 0.00 0.00 0.00 0.01 0.01 0.01 0.01 0.03 0.02 0.01 0.01 0.02 0.02 0.02 0.01 0.01 0.03 0.05 0.08 0.12 0.17 0.17 0.18 0.17 0.17 0.15 0.09 0.06 0.05 0.04 0.04 0.05 0.05 0.04 0.04 0.04 0.04 0.03 0.04
0.00 0.00 0.00 0.01 0.01 0.00 0.00 0.00 0.01 0.01 0.01 0.06 0.05 0.02 0.02 0.03 0.03 0.03 0.02 0.02 0.03 0.04 0.06 0.08 0.13 0.16 0.16 0.14 0.15 0.16 0.14 0.09 0.05 0.04 0.03 0.03 0.04 0.04 0.04 0.05 0.05 0.05 0.04
0.00 0.00 0.00 0.01 0.01 0.01 0.01 0.01 0.01 0.01 0.02 0.03 0.03 0.02 0.03 0.04 0.04 0.03 0.02 0.03 0.04 0.04 0.04 0.06 0.11 0.15 0.16 0.16 0.15 0.13 0.12 0.11 0.08 0.05 0.03 0.03 0.05 0.04 0.04 0.05 0.05 0.05 0.05
MSLP
1015.26 1014.70 1014.36 1014.28 1014.42 1014.70 1015.02 1015.29 1015.47 1015.52 1015.47 1015.37 1015.29 1015.28 1015.37 1015.54 1015.76 1015.99 1016.18 1016.29 1016.33 1016.29 1016.21 1016.12 1016.06 1016.02 1016.01 1016.02 1016.02 1016.01 1015.98 1015.92 1015.85 1015.78 1015.73 1015.71 1015.72 1015.75 1015.79 1015.84 1015.90 1015.96 1016.02
1015.23 1014.71 1014.40 1014.33 1014.46 1014.73 1015.04 1015.30 1015.47 1015.53 1015.50 1015.44 1015.39 1015.42 1015.54 1015.73 1015.96 1016.19 1016.38 1016.48 1016.51 1016.48 1016.40 1016.32 1016.26 1016.22 1016.21 1016.20 1016.17 1016.13 1016.05 1015.96 1015.87 1015.79 1015.75 1015.74 1015.76 1015.81 1015.88 1015.95 1016.02 1016.09 1016.16
1015.17 1014.69 1014.42 1014.36 1014.50 1014.76 1015.06 1015.32 1015.50 1015.57 1015.56 1015.53 1015.52 1015.57 1015.70 1015.90 1016.12 1016.33 1016.49 1016.57 1016.59 1016.55 1016.48 1016.41 1016.37 1016.34 1016.33 1016.31 1016.27 1016.20 1016.11 1016.00 1015.89 1015.82 1015.78 1015.78 1015.83 1015.90 1015.98 1016.06 1016.14 1016.21 1016.28
1015.09 1014.68 1014.44 1014.41 1014.56 1014.83 1015.12 1015.38 1015.55 1015.63 1015.65 1015.64 1015.64 1015.71 1015.83 1016.01 1016.20 1016.38 1016.50 1016.55 1016.55 1016.51 1016.45 1016.41 1016.38 1016.38 1016.38 1016.37 1016.33 1016.26 1016.16 1016.05 1015.95 1015.88 1015.86 1015.88 1015.93 1016.01 1016.09 1016.18 1016.25 1016.32 1016.39
1015.04 1014.68 1014.49 1014.49 1014.66 1014.92 1015.20 1015.45 1015.62 1015.70 1015.72 1015.71 1015.73 1015.79 1015.90 1016.05 1016.20 1016.33 1016.42 1016.45 1016.44 1016.40 1016.36 1016.34 1016.36 1016.38 1016.41 1016.42 1016.40 1016.34 1016.25 1016.15 1016.07 1016.01 1016.00 1016.02 1016.08 1016.16 1016.23 1016.30 1016.36 1016.41 1016.47
1015.06 1014.74 1014.59 1014.61 1014.78 1015.03 1015.30 1015.52 1015.67 1015.73 1015.74 1015.73 1015.74 1015.79 1015.88 1016.00 1016.13 1016.23 1016.28 1016.30 1016.29 1016.27 1016.26 1016.28 1016.33 1016.40 1016.46 1016.49 1016.49 1016.45 1016.38 1016.30 1016.23 1016.19 1016.19 1016.22 1016.27 1016.33 1016.38 1016.42 1016.45 1016.48 1016.52
1015.17 1014.88 1014.75 1014.78 1014.94 1015.16 1015.39 1015.57 1015.67 1015.71 1015.70 1015.68 1015.68 1015.72 1015.80 1015.90 1016.00 1016.08 1016.13 1016.15 1016.15 1016.16 1016.20 1016.26 1016.35 1016.45 1016.54 1016.60 1016.62 1016.59 1016.53 1016.47 1016.42 1016.39 1016.40 1016.43 1016.48 1016.52 1016.54 1016.54 1016.54 1016.54 1016.56
1015.41 1015.12 1014.99 1015.00 1015.12 1015.30 1015.46 1015.58 1015.63 1015.62 1015.59 1015.55 1015.54 1015.58 1015.66 1015.75 1015.86 1015.94 1016.00 1016.03 1016.06 1016.11 1016.18 1016.28 1016.41 1016.55 1016.66 1016.74 1016.76 1016.75 1016.70 1016.65 1016.60 1016.59 1016.60 1016.63 1016.66 1016.68 1016.68 1016.65 1016.61 1016.58 1016.58
1015.77 1015.46 1015.30 1015.28 1015.34 1015.44 1015.52 1015.56 1015.55 1015.49 1015.42 1015.36 1015.36 1015.40 1015.48 1015.59 1015.70 1015.80 1015.87 1015.93 1016.00 1016.08 1016.19 1016.33 1016.49 1016.65 1016.78 1016.87 1016.90 1016.88 1016.84 1016.79 1016.75 1016.74 1016.75 1016.78 1016.80 1016.81 1016.78 1016.73 1016.66 1016.61 1016.59
1016.22 1015.88 1015.68 1015.60 1015.58 1015.59 1015.58 1015.53 1015.44 1015.33 1015.23 1015.16 1015.15 1015.20 1015.30 1015.42 1015.55 1015.66 1015.75 1015.83 1015.92 1016.04 1016.18 1016.35 1016.54 1016.71 1016.85 1016.94 1016.97 1016.96 1016.91 1016.86 1016.82 1016.81 1016.83 1016.86 1016.88 1016.88 1016.85 1016.79 1016.71 1016.65 1016.63
1016.73 1016.36 1016.11 1015.95 1015.85 1015.76 1015.65 1015.51 1015.35 1015.18 1015.04 1014.97 1014.96 1015.01 1015.12 1015.25 1015.38 1015.49 1015.60 1015.69 1015.80 1015.93 1016.09 1016.28 1016.49 1016.68 1016.84 1016.93 1016.97 1016.95 1016.90 1016.85 1016.81 1016.81 1016.83 1016.86 1016.89 1016.90 1016.88 1016.83 1016.76 1016.70 1016.68
1017.25 1016.85 1016.56 1016.33 1016.15 1015.96 1015.75 1015.52 1015.28 1015.07 1014.90 1014.80 1014.79 1014.84 1014.94 1015.06 1015.18 1015.29 1015.38 1015.47 1015.57 1015.71 1015.89 1016.10 1016.32 1016.53 1016.70 1016.81 1016.86 1016.85 1016.81 1016.76 1016.73 1016.72 1016.75 1016.79 1016.84 1016.87 1016.87 1016.84 1016.80 1016.77 1016.76
1017.74 1017.33 1017.00 1016.72 1016.45 1016.18 1015.88 1015.57 1015.27 1015.00 1014.80 1014.68 1014.65 1014.68 1014.76 1014.86 1014.95 1015.03 1015.09 1015.16 1015.25 1015.39 1015.57 1015.79 1016.03 1016.26 1016.46 1016.59 1016.66 1016.67 1016.65 1016.61 1016.58 1016.58 1016.61 1016.67 1016.73 1016.79 1016.82 1016.84 1016.84 1016.84 1016.86
1018.16 1017.76 1017.41 1017.08 1016.75 1016.40 1016.04 1015.66 1015.31 1015.00 1014.76 1014.61 1014.54 1014.54 1014.58 1014.64 1014.68 1014.72 1014.74 1014.78 1014.85 1014.98 1015.16 1015.39 1015.65 1015.91 1016.13 1016.30 1016.40 1016.44 1016.44 1016.41 1016.39 1016.40 1016.44 1016.50 1016.59 1016.67 1016.75 1016.81 1016.86 1016.91 1016.97
1018.50 1018.12 1017.76 1017.40 1017.03 1016.63 1016.21 1015.79 1015.39 1015.04 1014.76 1014.57 1014.46 1014.42 1014.40 1014.40 1014.40 1014.38 1014.36 1014.37 1014.42 1014.53 1014.72 1014.96 1015.23 1015.52 1015.77 1015.97 1016.11 1016.19 1016.21 1016.20 1016.19 1016.20 1016.24 1016.32 1016.42 1016.53 1016.64 1016.76 1016.86 1016.96 1017.06
1018.77 1018.41 1018.05 1017.68 1017.28 1016.84 1016.39 1015.93 1015.50 1015.12 1014.81 1014.57 1014.41 1014.31 1014.24 1014.17 1014.11 1014.05 1014.00 1013.98 1014.02 1014.12 1014.30 1014.55 1014.84 1015.15 1015.43 1015.66 1015.83 1015.94 1015.99 1016.00 1016.00 1016.01 1016.05 1016.12 1016.23 1016.36 1016.51 1016.66 1016.82 1016.96 1017.11
1018.98 1018.63 1018.27 1017.89 1017.48 1017.03 1016.56 1016.09 1015.64 1015.24 1014.89 1014.61 1014.39 1014.23 1014.09 1013.97 1013.86 1013.76 1013.69 1013.66 1013.69 1013.79 1013.97 1014.22 1014.52 1014.83 1015.13 1015.39 1015.58 1015.71 1015.78 1015.81 1015.82 1015.83 1015.86 1015.93 1016.04 1016.18 1016.35 1016.53 1016.73 1016.92 1017.12
1019.14 1018.80 1018.44 1018.05 1017.64 1017.20 1016.73 1016.27 1015.81 1015.39 1015.01 1014.69 1014.41 1014.17 1013.97 1013.80 1013.65 1013.52 1013.44 1013.41 1013.44 1013.55 1013.73 1013.98 1014.27 1014.59 1014.89 1015.15 1015.36 1015.51 1015.60 1015.64 1015.66 1015.67 1015.69 1015.75 1015.85 1015.99 1016.17 1016.38 1016.60 1016.84 1017.06
1019.28 1018.92 1018.56 1018.17 1017.76 1017.34 1016.90 1016.45 1016.01 1015.58 1015.17 1014.80 1014.46 1014.16 1013.89 1013.66 1013.48 1013.33 1013.24 1013.22 1013.26 1013.37 1013.56 1013.80 1014.08 1014.38 1014.67 1014.93 1015.15 1015.31 1015.42 1015.48 1015.51 1015.52 1015.54 1015.59 1015.67 1015.80 1015.98 1016.20 1016.44 1016.70 1016.96
1019.38 1019.01 1018.63 1018.25 1017.86 1017.47 1017.06 1016.65 1016.23 1015.80 1015.37 1014.95 1014.54 1014.17 1013.84 1013.55 1013.32 1013.16 1013.07 1013.04 1013.09 1013.21 1013.39 1013.62 1013.88 1014.16 1014.44 1014.70 1014.93 1015.11 1015.24 1015.32 1015.36 1015.39 1015.41 1015.45 1015.52 1015.64 1015.81 1016.02 1016.27 1016.54 1016.82
1019.45 1019.05 1018.67 1018.29 1017.93 1017.57 1017.22 1016.85 1016.45 1016.03 1015.58 1015.11 1014.64 1014.19 1013.79 1013.44 1013.17 1012.97 1012.87 1012.84 1012.89 1013.00 1013.17 1013.38 1013.63 1013.89 1014.16 1014.42 1014.66 1014.87 1015.03 1015.15 1015.23 1015.28 1015.31 1015.34 1015.40 1015.50 1015.65 1015.84 1016.08 1016.35 1016.64
1019.48 1019.07 1018.67 1018.31 1017.97 1017.66 1017.35 1017.03 1016.67 1016.25 1015.78 1015.27 1014.74 1014.21 1013.73 1013.31 1012.98 1012.75 1012.61 1012.57 1012.60 1012.70 1012.85 1013.04 1013.27 1013.52 1013.79 1014.06 1014.33 1014.58 1014.79 1014.96 1015.09 1015.17 1015.22 1015.26 1015.32 1015.40 1015.52 1015.69 1015.91 1016.16 1016.43
1019.48 1019.06 1018.65 1018.30 1017.99 1017.72 1017.46 1017.18 1016.85 1016.45 1015.96 1015.41 1014.81 1014.21 1013.65 1013.15 1012.76 1012.47 1012.29 1012.21 1012.21 1012.28 1012.41 1012.58 1012.79 1013.04 1013.31 1013.61 1013.92 1014.23 1014.50 1014.74 1014.92 1015.05 1015.13 1015.19 1015.24 1015.31 1015.41 1015.55 1015.74 1015.96 1016.21
1019.47 1019.03 1018.63 1018.28 1018.00 1017.76 1017.53 1017.29 1016.98 1016.59 1016.09 1015.50 1014.86 1014.19 1013.55 1012.98 1012.51 1012.16 1011.92 1011.79 1011.75 1011.78 1011.87 1012.01 1012.21 1012.46 1012.75 1013.09 1013.45 1013.82 1014.16 1014.47 1014.72 1014.90 1015.02 1015.10 1015.16 1015.22 1015.30 1015.41 1015.57 1015.76 1015.98
1019.45 1019.02 1018.61 1018.27 1017.99 1017.77 1017.57 1017.35 1017.06 1016.67 1016.17 1015.56 1014.88 1014.16 1013.46 1012.83 1012.29 1011.87 1011.57 1011.37 1011.27 1011.25 1011.29 1011.40 1011.58 1011.83 1012.14 1012.52 1012.93 1013.36 1013.77 1014.14 1014.45 1014.69 1014.85 1014.96 1015.03 1015.09 1015.17 1015.27 1015.40 1015.57 1015.76
1019.46 1019.03 1018.62 1018.28 1018.00 1017.77 1017.58 1017.36 1017.08 1016.70 1016.20 1015.59 1014.89 1014.15 1013.42 1012.74 1012.15 1011.66 1011.29 1011.03 1010.86 1010.77 1010.76 1010.83 1010.98 1011.22 1011.54 1011.94 1012.39 1012.86 1013.32 1013.75 1014.11 1014.39 1014.59 1014.73 1014.82 1014.90 1014.99 1015.09 1015.22 1015.37 1015.54
Thickness
5782 5783 5782 5781 5779 5777 5776 5774 5774 5773 5772 5772 5771 5771 5771 5770 5770 5770 5769 5769 5769 5769 5770 5770 5770 5770 5770 5770 5770 5771 5771 5771 5771 5771 5771 5771 5770 5770 5769 5769 5768 5767 5767
5785 5784 5782 5781 5779 5777 5775 5774 5773 5772 5771 5771 5770 5770 5770 5769 5769 5769 5768 5768 5768 5768 5768 5768 5767 5768 5768 5768 5768 5768 5768 5768 5769 5768 5768 5768 5767 5767 5767 5766 5765 5765 5764
5785 5783 5782 5779 5778 5776 5774 5773 5772 5771 5770 5770 5769 5769 5768 5768 5768 5767 5767 5767 5767 5767 5766 5766 5766 5766 5766 5766 5766 5766 5766 5766 5766 5766 5765 5765 5765 5764 5764 5763 5763 5763 5762
5783 5781 5780 5778 5776 5775 5773 5772 5771 5770 5769 5769 5768 5768 5767 5767 5766 5766 5766 5766 5766 5766 5765 5765 5764 5764 5764 5764 5764 5764 5764 5764 5764 5764 5763 5762 5762 5762 5761 5761 5761 5761 5760
5779 5778 5777 5776 5774 5773 5771 5770 5769 5768 5768 5767 5767 5767 5766 5766 5766 5765 5765 5765 5765 5765 5764 5764 5763 5763 5763 5763 5762 5762 5762 5763 5763 5762 5761 5761 5760 5760 5760 5759 5759 5759 5759
5775 5774 5773 5772 5771 5771 5769 5768 5768 5767 5766 5766 5765 5765 5765 5765 5765 5765 5764 5764 5764 5764 5763 5763 5762 5762 5762 5761 5761 5761 5761 5761 5761 5761 5760 5759 5759 5759 5758 5758 5758 5757 5757
5770 5769 5768 5769 5768 5768 5767 5766 5766 5765 5765 5764 5764 5764 5764 5763 5764 5764 5763 5763 5763 5763 5762 5762 5761 5761 5761 5760 5760 5760 5760 5760 5760 5759 5759 5758 5758 5757 5757 5757 5756 5756 5756
5765 5764 5764 5764 5764 5764 5764 5763 5763 5763 5763 5763 5762 5762 5762 5762 5762 5763 5762 5762 5762 5762 5761 5761 5760 5760 5760 5760 5759 5759 5759 5759 5759 5759 5758 5758 5757 5757 5756 5756 5755 5755 5755
5761 5760 5760 5760 5760 5760 5760 5760 5760 5760 5760 5761 5761 5761 5761 5761 5761 5761 5761 5761 5761 5761 5760 5760 5759 5759 5759 5759 5759 5758 5758 5758 5758 5758 5757 5757 5757 5756 5755 5755 5754 5754 5754
5755 5754 5754 5755 5755 5755 5756 5756 5757 5757 5757 5758 5758 5758 5758 5758 5759 5759 5760 5760 5760 5760 5759 5759 5759 5758 5758 5758 5758 5758 5758 5757 5757 5757 5757 5756 5756 5756 5755 5754 5753 5753 5753
5747 5747 5747 5749 5749 5750 5751 5752 5752 5753 5754 5754 5755 5755 5755 5756 5756 5757 5758 5758 5758 5759 5758 5758 5758 5757 5757 5757 5757 5757 5757 5756 5756 5756 5756 5756 5756 5755 5754 5753 5753 5752 5752
5737 5739 5740 5741 5743 5744 5745 5747 5748 5748 5750 5750 5751 5751 5751 5752 5753 5754 5755 5756 5756 5757 5757 5757 5756 5756 5756 5755 5755 5755 5755 5755 5755 5755 5756 5756 5755 5755 5754 5753 5752 5752 5751
5729 5731 5733 5734 5735 5737 5739 5741 5742 5742 5744 5746 5746 5747 5747 5748 5749 5751 5751 5753 5754 5754 5755 5755 5755 5754 5754 5753 5753 5753 5753 5753 5754 5754 5755 5755 5755 5754 5753 5753 5752 5751 5751
5720 5722 5724 5726 5728 5730 5731 5733 5734 5736 5738 5739 5741 5742 5743 5744 5745 5747 5748 5749 5750 5751 5752 5752 5752 5752 5751 5751 5751 5751 5752 5752 5753 5753 5754 5754 5754 5754 5753 5752 5751 5751 5750
5710 5712 5714 5717 5718 5720 5722 5724 5727 5729 5731 5733 5735 5736 5738 5739 5741 5742 5744 5746 5747 5748 5748 5749 5749 5749 5749 5749 5749 5749 5750 5751 5752 5752 5753 5753 5753 5753 5752 5752 5751 5750 5750
5700 5702 5704 5707 5709 5710 5712 5714 5717 5720 5723 5726 5728 5730 5732 5734 5737 5739 5740 5742 5743 5744 5745 5746 5746 5746 5746 5746 5747 5748 5749 5750 5750 5751 5751 5752 5752 5751 5751 5751 5750 5749 5749
5692 5693 5695 5697 5699 5700 5702 5705 5708 5710 5713 5717 5720 5723 5725 5728 5731 5733 5735 5737 5739 5740 5741 5742 5743 5743 5743 5743 5744 5745 5747 5748 5749 5750 5750 5750 5750 5750 5750 5749 5749 5748 5747
5684 5685 5686 5688 5689 5691 5693 5695 5698 5701 5704 5707 5711 5714 5717 5721 5724 5727 5729 5732 5734 5735 5737 5737 5738 5737 5738 5739 5740 5742 5744 5745 5747 5748 5748 5748 5748 5748 5748 5747 5747 5747 5746
5677 5677 5678 5680 5681 5682 5684 5687 5689 5692 5695 5698 5702 5705 5708 5712 5716 5719 5722 5725 5727 5729 5731 5733 5733 5734 5733 5734 5735 5737 5740 5741 5743 5745 5745 5746 5746 5746 5746 5745 5745 5744 5744
5672 5672 5672 5673 5673 5674 5676 5678 5681 5683 5686 5689 5692 5696 5699 5703 5707 5711 5715 5718 5720 5722 5724 5726 5727 5729 5730 5729 5730 5732 5734 5737 5739 5741 5742 5743 5743 5743 5743 5742 5742 5742 5742
5667 5666 5666 5666 5666 5666 5667 5668 5670 5672 5676 5680 5683 5687 5690 5694 5698 5702 5706 5709 5713 5716 5718 5720 5721 5722 5723 5724 5722 5722 5725 5730 5732 5735 5737 5738 5739 5740 5740 5739 5739 5739 5739
5661 5660 5660 5659 5659 5659 5659 5660 5662 5664 5667 5671 5674 5678 5682 5685 5689 5693 5697 5701 5705 5708 5711 5714 5715 5716 5717 5719 5717 5713 5713 5717 5724 5730 5731 5732 5734 5736 5736 5736 5736 5736 5736
5656 5655 5655 5654 5654 5654 5654 5655 5656 5658 5660 5662 5666 5669 5673 5677 5681 5685 5688 5692 5696 5700 5704 5708 5710 5711 5711 5713 5716 5713 5709 5709 5714 5720 5724 5727 5729 5731 5732 5733 5733 5733 5733
5653 5653 5651 5650 5650 5650 5650 5650 5649 5649 5651 5654 5657 5661 5666 5670 5673 5677 5681 5684 5688 5693 5697 5701 5705 5707 5707 5707 5709 5713 5714 5713 5709 5709 5715 5720 5723 5725 5727 5729 5730 5730 5730
5652 5651 5649 5648 5647 5647 5646 5645 5645 5645 5646 5649 5652 5655 5659 5663 5666 5670 5674 5678 5681 5686 5690 5694 5698 5700 5702 5703 5704 5705 5706 5708 5709 5707 5706 5710 5714 5719 5722 5724 5725 5726 5726
5651 5649 5648 5646 5645 5645 5643 5642 5641 5641 5642 5644 5646 5649 5652 5656 5660 5664 5667 5671 5675 5679 5683 5687 5691 5694 5697 5699 5701 5703 5704 5704 5704 5704 5703 5704 5706 5711 5716 5718 5720 5722 5723